Terminal Aerodrome Forecast
Issued by NWS Cleveland, OH

Home | Current Version | Previous Version | Graphics & Text | Print | Product List | Glossary On
Versions: 1 2 3 4 5 6 7 8 9 10 11 12 13 14 15 16 17 18 19 20 21
000
FTUS41 KCLE 231100
TAFCAK
TAF
KCAK 231126Z 2312/2412 34010G18KT P6SM BKN025 OVC035
      TEMPO 2313/2317 SCT025 BKN035
     FM231700 33012G20KT P6SM SCT045
     FM232300 36006KT P6SM SCT250
     FM240400 VRB03KT P6SM SCT100 BKN250=

USA.gov is the U.S. government's official web portal to all federal, state and local government web resources and services.